Terminal Aerodrome Forecast
Issued by NWS Mt. Holly, NJ

Home | Current Version | Previous Version | Text Only | Print | Product List | Glossary On
Versions: 1 2 3 4 5 6 7 8 9 10 11 12 13 14 15 16 17 18 19 20
000
FTUS41 KPHI 270523
TAFRDG
TAF
KRDG 270523Z 2706/2806 09005KT P6SM -SHRA OVC005
      TEMPO 2706/2710 4SM -SHRA BR SCT005 OVC010
     FM271000 VRB04KT 4SM -SHRA BR OVC010
     FM271600 24004KT 6SM BR VCSH BKN020 OVC050
     FM272200 22006KT P6SM VCSH BKN050
     FM280400 VRB02KT 3SM BR BKN100=

USA.gov is the U.S. government's official web portal to all federal, state and local government web resources and services.